Date String (YYYY-MM-DD hh:mm:ss) UTC,Instrument flags,Ambient pressure (hPa),Sample flow (lpm),Bypass flow (lpm),Sample temperature (°C),Ambient temperature (°C),ASC tube jacket temperature (°C),LED temperature (°C),Box temperature (°C),Sample RH (%),Span deviation,Mass concentration (μg/m³),Mass concentration (μg/m³),Mass concentration (μg/m³)
DateTimeUTC,F1_M11,P_M11,Q1_M11,Q2_M11,T1_M11,T2_M11,T3_M11,T4_M11,T5_M11,U1_M11,ZSPAN_M11,X0_M11,X2_M11,X1_M11
2023-05-17 19:00:00,,0829.6,5.01,0.00,29.2,27.5,00.0,37.5,30.9,16.5,0000.0,0009.47,0004.32,0003.38
2023-05-17 19:01:00,,0829.6,5.01,0.00,29.2,27.7,00.0,37.5,30.9,16.5,0000.0,0009.35,0004.35,0003.40
2023-05-17 19:02:00,,0829.7,5.00,0.00,29.2,27.8,00.0,37.5,30.9,17.1,0000.0,0009.45,0004.40,0003.42
2023-05-17 19:03:00,,0829.7,4.99,0.00,29.3,27.9,00.0,37.5,31.0,16.0,0000.0,0009.46,0004.41,0003.42
2023-05-17 19:04:00,,0829.6,5.00,0.00,29.3,28.0,00.0,37.5,31.0,15.9,0000.0,0008.89,0004.39,0003.42
2023-05-17 19:05:00,,0829.7,5.00,0.00,29.3,28.0,00.0,37.5,31.0,16.0,0000.0,0008.77,0004.39,0003.43
2023-05-17 19:06:00,,0829.7,4.97,0.00,29.3,27.2,00.0,37.5,30.9,16.5,0000.0,0008.83,0004.38,0003.44
2023-05-17 19:07:00,,0829.6,5.00,0.00,29.3,25.9,00.0,37.4,30.7,16.6,0000.0,0008.73,0004.42,0003.45
2023-05-17 19:08:00,,0829.6,5.01,0.00,29.2,25.8,00.0,37.4,30.7,17.3,0000.0,0008.68,0004.42,0003.47
2023-05-17 19:09:00,,0829.6,5.00,0.00,29.2,26.0,00.0,37.4,30.6,16.8,0000.0,0008.60,0004.40,0003.46
2023-05-17 19:10:00,,0829.6,5.00,0.00,29.1,26.3,00.0,37.4,30.6,16.5,0000.0,0008.63,0004.42,0003.48
2023-05-17 19:11:00,,0829.6,5.00,0.00,29.1,26.6,00.0,37.4,30.7,15.7,0000.0,0008.67,0004.46,0003.49
2023-05-17 19:12:00,,0829.6,5.00,0.00,29.1,26.9,00.0,37.4,30.7,16.0,0000.0,0008.63,0004.45,0003.50
2023-05-17 19:13:00,,0829.6,4.99,0.00,29.1,27.1,00.0,37.4,30.8,16.1,0000.0,0008.48,0004.41,0003.50
2023-05-17 19:14:00,,0829.6,5.00,0.00,29.2,27.3,00.0,37.4,30.8,17.6,0000.0,0008.31,0004.38,0003.49
2023-05-17 19:15:00,,0829.6,5.00,0.00,29.2,27.5,00.0,37.5,30.8,16.6,0000.0,0008.44,0004.37,0003.49
2023-05-17 19:16:00,,0829.6,5.00,0.00,29.2,27.6,00.0,37.5,30.9,15.3,0000.0,0008.94,0004.36,0003.48
2023-05-17 19:17:00,,0829.6,4.99,0.00,29.2,27.8,00.0,37.5,30.9,15.7,0000.0,0008.90,0004.41,0003.49
2023-05-17 19:18:00,,0829.6,5.00,0.00,29.2,27.9,00.0,37.5,30.9,16.0,0000.0,0009.02,0004.46,0003.48
2023-05-17 19:19:00,,0829.6,5.01,0.00,29.3,28.0,00.0,37.5,31.0,16.7,0000.0,0009.08,0004.46,0003.49
2023-05-17 19:20:00,,0829.6,5.01,0.00,29.3,28.0,00.0,37.5,31.0,16.8,0000.0,0009.14,0004.42,0003.49
2023-05-17 19:21:00,,0829.5,4.99,0.00,29.3,27.1,00.0,37.5,30.9,16.3,0000.0,0009.14,0004.39,0003.48
2023-05-17 19:22:00,,0829.4,5.00,0.00,29.3,25.9,00.0,37.4,30.7,17.0,0000.0,0009.07,0004.36,0003.46
2023-05-17 19:23:00,,0829.4,5.02,0.00,29.2,25.8,00.0,37.4,30.6,16.4,0000.0,0009.08,0004.35,0003.45
2023-05-17 19:24:00,,0829.4,5.00,0.00,29.2,26.0,00.0,37.4,30.6,17.2,0000.0,0009.06,0004.34,0003.43
2023-05-17 19:25:00,,0829.4,4.99,0.00,29.1,26.3,00.0,37.4,30.6,17.0,0000.0,0009.11,0004.35,0003.44
2023-05-17 19:26:00,,0829.4,5.01,0.00,29.1,26.6,00.0,37.4,30.7,16.2,0000.0,0008.94,0004.31,0003.43
2023-05-17 19:27:00,,0829.3,5.01,0.00,29.1,26.9,00.0,37.4,30.7,15.8,0000.0,0008.45,0004.34,0003.42
2023-05-17 19:28:00,,0829.3,5.00,0.00,29.1,27.1,00.0,37.4,30.8,15.7,0000.0,0008.40,0004.35,0003.42
2023-05-17 19:29:00,,0829.3,5.00,0.00,29.1,27.3,00.0,37.4,30.8,15.8,0000.0,0008.33,0004.31,0003.42
2023-05-17 19:30:00,,0829.3,4.99,0.00,29.2,27.5,00.0,37.4,30.8,15.5,0000.0,0008.32,0004.33,0003.42
2023-05-17 19:31:00,,0829.4,4.99,0.00,29.2,27.6,00.0,37.5,30.9,15.5,0000.0,0008.28,0004.39,0003.43
2023-05-17 19:32:00,,0829.3,5.01,0.00,29.2,27.8,00.0,37.5,30.9,16.2,0000.0,0008.57,0004.43,0003.42
2023-05-17 19:33:00,,0829.3,5.00,0.00,29.3,27.9,00.0,37.5,31.0,15.9,0000.0,0008.53,0004.38,0003.42
2023-05-17 19:34:00,,0829.4,5.00,0.00,29.3,28.0,00.0,37.5,31.0,14.9,0000.0,0008.51,0004.37,0003.44
2023-05-17 19:35:00,,0829.3,5.00,0.00,29.3,28.1,00.0,37.5,31.0,15.1,0000.0,0008.66,0004.39,0003.44
2023-05-17 19:36:00,,0829.2,4.98,0.00,29.3,27.8,00.0,37.5,31.0,15.7,0000.0,0008.85,0004.44,0003.43
2023-05-17 19:37:00,,0829.2,5.00,0.00,29.3,26.3,00.0,37.5,30.8,16.2,0000.0,0009.55,0004.55,0003.42
2023-05-17 19:38:00,,0829.1,5.00,0.00,29.3,25.7,00.0,37.4,30.7,17.0,0000.0,0009.93,0004.53,0003.42
2023-05-17 19:39:00,,0829.1,5.02,0.00,29.2,25.9,00.0,37.4,30.6,16.6,0000.0,0009.81,0004.49,0003.42
2023-05-17 19:40:00,,0829.1,4.99,0.00,29.2,26.1,00.0,37.4,30.6,16.6,0000.0,0009.87,0004.47,0003.42
2023-05-17 19:41:00,,0829.1,5.00,0.00,29.1,26.4,00.0,37.4,30.7,17.1,0000.0,0010.00,0004.42,0003.41
2023-05-17 19:42:00,,0829.1,4.99,0.00,29.1,26.7,00.0,37.4,30.7,16.6,0000.0,0009.99,0004.41,0003.41
2023-05-17 19:43:00,,0829.1,5.01,0.00,29.1,27.0,00.0,37.4,30.8,15.6,0000.0,0009.77,0004.41,0003.41
2023-05-17 19:44:00,,0829.1,5.00,0.00,29.2,27.2,00.0,37.5,30.8,16.1,0000.0,0010.05,0004.46,0003.41
2023-05-17 19:45:00,,0829.1,4.99,0.00,29.2,27.4,00.0,37.5,30.8,16.7,0000.0,0010.07,0004.46,0003.40
2023-05-17 19:46:00,,0829.1,5.00,0.00,29.2,27.6,00.0,37.5,30.9,16.7,0000.0,0009.99,0004.45,0003.42
2023-05-17 19:47:00,,0829.1,5.00,0.00,29.2,27.7,00.0,37.5,30.9,16.5,0000.0,0009.92,0004.42,0003.42
2023-05-17 19:48:00,,0829.1,5.00,0.00,29.2,27.8,00.0,37.5,31.0,16.5,0000.0,0009.67,0004.31,0003.44
2023-05-17 19:49:00,,0829.1,5.00,0.00,29.3,27.9,00.0,37.5,31.0,17.5,0000.0,0009.03,0004.29,0003.45
2023-05-17 19:50:00,,0829.0,5.00,0.00,29.3,28.0,00.0,37.5,31.0,17.5,0000.0,0009.12,0004.31,0003.46
2023-05-17 19:51:00,,0829.1,5.00,0.00,29.3,28.1,00.0,37.6,31.1,17.1,0000.0,0009.14,0004.31,0003.46
2023-05-17 19:52:00,,0829.1,5.00,0.00,29.4,27.9,00.0,37.6,31.1,16.2,0000.0,0008.89,0004.33,0003.47
2023-05-17 19:53:00,,0829.1,4.99,0.00,29.3,26.2,00.0,37.5,30.9,16.6,0000.0,0008.80,0004.31,0003.47
2023-05-17 19:54:00,,0829.1,5.00,0.00,29.3,25.7,00.0,37.4,30.7,16.2,0000.0,0008.76,0004.29,0003.48
2023-05-17 19:55:00,,0829.1,5.01,0.00,29.2,25.8,00.0,37.4,30.6,16.4,0000.0,0008.53,0004.29,0003.49
2023-05-17 19:56:00,,0829.1,5.02,0.00,29.2,26.1,00.0,37.4,30.6,16.3,0000.0,0008.66,0004.31,0003.49
2023-05-17 19:57:00,,0829.1,4.99,0.00,29.1,26.4,00.0,37.4,30.7,16.8,0000.0,0008.76,0004.36,0003.49
2023-05-17 19:58:00,,0829.1,5.00,0.00,29.2,26.7,00.0,37.4,30.7,16.9,0000.0,0008.79,0004.38,0003.50
2023-05-17 19:59:00,,0829.1,5.00,0.00,29.2,27.0,00.0,37.5,30.8,16.3,0000.0,0008.70,0004.45,0003.51
